Weather History for Springfield, VT

Change the Weather History Date:

Saturday, October 6, 2012

  Actual Average Record
Temperature  
Mean Temperature 58 °F 50 °F  
Max Temperature 70 °F 62 °F 80 °F (1997)
Min Temperature 45 °F 39 °F 26 °F (1996)
Degree Days  
Heating Degree Days 7 15  
Month to date heating degree days 29 82  
Since 1 July heating degree days 215 334  
Cooling Degree Days 0 0  
Month to date cooling degree days 1 0  
Year to date cooling degree days 640 344  
Growing Degree Days 10 (Base 50)    
Moisture  
Dew Point 52 °F    
Average Humidity 75    
Maximum Humidity 93    
Minimum Humidity 56    
Precipitation  
Precipitation T in 0.15 in 0.99 in (2000)
Month to date precipitation 0.27 0.97  
Year to date precipitation 26.26 33.10  
Sea Level Pressure  
Sea Level Pressure 29.82 in    
Wind  
Wind Speed 4 mph (West)    
Max Wind Speed 18 mph    
Max Gust Speed 24 mph    
Visibility 6 miles    
Events Fog , Rain    
T = Trace of Precipitation, MM = Missing Value Source: NWS Daily Summary

Daily Weather History Graph

Daily Weather History Graph

Search for Another Location

Airport:

Trip Planner

Search our weather history database for the weather conditions in past years. The results will help you decide how hot, cold, wet, or windy it might be!

Date:

Astronomy

Oct. 06, 2012 Rise Set
Actual Time 6:53 AM EDT 6:21 PM EDT
Civil Twilight 6:25 AM EDT 6:50 PM EDT
Nautical Twilight 5:52 AM EDT 7:22 PM EDT
Astronomical Twilight 5:18 AM EDT 7:56 PM EDT
Moon 10:26 PM EDT (10/6) 12:54 PM EDT (10/6)
Length of Visible Light 12h 24m
Length of Day
11h 27m
Waning Gibbous, 65% of the Moon is Illuminated
Oct 6
Waning Gibbous
Oct 8
Last Quarter
Oct 15
New
Oct 21
First Quarter
Oct 29
Full

Hourly Weather History & Observations

Time (EDT) Temp. Dew Point Humidity Pressure Visibility Wind Dir Wind Speed Gust Speed Precip Events Conditions
12:54 AM 60.1 °F 57.9 °F 93% 29.89 in 4.0 mi Calm Calm - N/A   Scattered Clouds
1:46 AM 60.8 °F 57.2 °F 88% 29.88 in 2.5 mi Calm Calm - N/A   Mostly Cloudy
1:54 AM 60.1 °F 57.9 °F 93% 29.88 in 3.0 mi Calm Calm - N/A   Overcast
2:32 AM 59.0 °F 57.2 °F 94% 29.86 in 3.0 mi Calm Calm - N/A   Overcast
2:49 AM 59.0 °F 57.2 °F 94% 29.86 in 1.8 mi Calm Calm - N/A   Overcast
2:54 AM 57.9 °F 55.9 °F 93% 29.85 in 1.2 mi Calm Calm - N/A   Overcast
3:17 AM 59.0 °F 55.4 °F 88% 29.85 in 2.5 mi Calm Calm - N/A   Overcast
3:41 AM 59.0 °F 57.2 °F 94% 29.84 in 4.0 mi Calm Calm - N/A   Overcast
3:54 AM 59.0 °F 55.9 °F 90% 29.84 in 5.0 mi Calm Calm - N/A   Overcast
4:15 AM 57.2 °F 55.4 °F 94% 29.84 in 2.0 mi Calm Calm - N/A   Mostly Cloudy
4:54 AM 57.0 °F 55.0 °F 93% 29.83 in 4.0 mi Calm Calm - N/A   Clear
5:21 AM 55.4 °F 53.6 °F 94% 29.82 in 1.0 mi Calm Calm - N/A   Mist
5:28 AM 55.4 °F 53.6 °F 94% 29.82 in 0.5 mi Calm Calm - N/A Fog Fog
5:33 AM 57.2 °F 53.6 °F 88% 29.82 in 1.0 mi Calm Calm - N/A   Mostly Cloudy
5:37 AM 57.2 °F 55.4 °F 94% 29.82 in 3.0 mi Calm Calm - N/A   Mostly Cloudy
5:54 AM 57.9 °F 55.0 °F 90% 29.82 in 6.0 mi Calm Calm - N/A   Overcast
6:42 AM 59.0 °F 55.4 °F 88% 29.81 in 6.0 mi Calm Calm - N/A   Overcast
6:54 AM 59.0 °F 55.9 °F 90% 29.81 in 6.0 mi Calm Calm - N/A   Overcast
7:54 AM 60.1 °F 55.9 °F 86% 29.80 in 4.0 mi Calm Calm - N/A   Overcast
8:54 AM 62.1 °F 57.0 °F 84% 29.79 in 6.0 mi Calm Calm - N/A   Haze
9:09 AM 62.6 °F 57.2 °F 82% 29.79 in 6.0 mi SE 4.6 mph - N/A   Overcast
10:15 AM 64.4 °F 57.2 °F 77% 29.76 in 8.0 mi SE 8.1 mph - N/A   Scattered Clouds
10:54 AM 64.9 °F 57.0 °F 75% 29.74 in 8.0 mi SE 5.8 mph - N/A   Partly Cloudy
11:54 AM 69.1 °F 57.0 °F 65% 29.71 in 10.0 mi SSE 5.8 mph - N/A   Scattered Clouds
12:54 PM 68.0 °F 57.9 °F 70% 29.70 in 9.0 mi Calm Calm - 0.00 in Rain Light Rain
1:54 PM 68.0 °F 57.9 °F 70% 29.70 in 10.0 mi WSW 10.4 mph 17.3 mph 0.00 in   Overcast
2:54 PM 63.0 °F 52.0 °F 67% 29.75 in 10.0 mi WNW 12.7 mph 24.2 mph 0.00 in Rain Light Rain
3:14 PM 60.8 °F 50.0 °F 68% 29.76 in 10.0 mi WNW 9.2 mph - 0.00 in   Overcast
3:54 PM 59.0 °F 48.0 °F 67% 29.78 in 10.0 mi WNW 10.4 mph 21.9 mph 0.00 in   Overcast
4:38 PM 57.2 °F 46.4 °F 67% 29.79 in 10.0 mi NNW 10.4 mph 16.1 mph N/A   Overcast
4:54 PM 57.9 °F 46.0 °F 65% 29.81 in 10.0 mi Variable 5.8 mph - N/A   Overcast
5:54 PM 57.0 °F 45.0 °F 64% 29.83 in 10.0 mi Variable 3.5 mph - N/A   Overcast
6:13 PM 55.4 °F 44.6 °F 67% 29.82 in 10.0 mi NW 5.8 mph - N/A   Scattered Clouds
6:54 PM 54.0 °F 46.0 °F 75% 29.84 in 10.0 mi WNW 4.6 mph - N/A   Clear
7:54 PM 54.0 °F 45.0 °F 72% 29.87 in 10.0 mi Calm Calm - N/A   Mostly Cloudy
8:54 PM 55.0 °F 41.0 °F 59% 29.88 in 10.0 mi WNW 10.4 mph 20.7 mph N/A   Partly Cloudy
9:54 PM 52.0 °F 39.0 °F 61% 29.91 in 10.0 mi West 12.7 mph - N/A   Clear
10:54 PM 52.0 °F 37.0 °F 57% 29.94 in 10.0 mi SW 4.6 mph - N/A   Clear
11:54 PM 50.0 °F 36.0 °F 59% 29.96 in 10.0 mi WSW 3.5 mph - N/A   Scattered Clouds